When you browse on this site, cookies collect data to enhance your experience and personalize the content and advertising you see.
Visit our Privacy Policy to learn more. By continuing to use the site, you agree to this use of cookies and data.
  • En España
  • Lista de países
  • Para 7 días
  • Temperatura del agua
  • Mapa Satelital
  • El tiempo en el mapa
  • Informadores
  • user-avatar
    Iniciar sesión

    Tiempo cada hora Melbourne

    Hoy, 18 Enero, Viernes

    Tiempo Temperatura Precipitaciones Viento Presión Humedad
    00:00 +27°C° 0.8 mm 3 mps 755 mmHg 68%
    01:00 +26°C° 0.8 mm 3 mps 755 mmHg 74%
    02:00 +26°C° 0 mm 4 mps 754 mmHg 72%
    03:00 +27°C° 0 mm 4 mps 754 mmHg 70%
    04:00 +26°C° 0 mm 3 mps 754 mmHg 72%
    05:00 +27°C° 1 mm 3 mps 754 mmHg 72%
    06:00 +27°C° 1 mm 3 mps 754 mmHg 72%
    07:00 +27°C° 1 mm 2 mps 754 mmHg 71%
    08:00 +29°C° 0 mm 3 mps 754 mmHg 63%
    09:00 +31°C° 0 mm 3 mps 754 mmHg 54%
    10:00 +33°C° 0 mm 3 mps 755 mmHg 54%
    11:00 +34°C° 0.1 mm 3 mps 755 mmHg 50%
    12:00 +34°C° 0.1 mm 3 mps 755 mmHg 46%
    13:00 +35°C° 0.1 mm 4 mps 754 mmHg 42%
    14:00 +34°C° 0 mm 4 mps 755 mmHg 47%
    15:00 +32°C° 0 mm 4 mps 755 mmHg 52%
    16:00 +27°C° 0 mm 2 mps 756 mmHg 71%
    17:00 +26°C° 0 mm 2 mps 756 mmHg 73%
    18:00 +25°C° 0 mm 3 mps 757 mmHg 75%
    19:00 +24°C° 0 mm 3 mps 757 mmHg 77%
    20:00 +24°C° 0 mm 3 mps 758 mmHg 73%
    21:00 +22°C° 0 mm 3 mps 759 mmHg 70%
    22:00 +21°C° 0 mm 3 mps 760 mmHg 63%
    23:00 +20°C° 0 mm 3 mps 760 mmHg 65%

    Mañana, 19 Enero, Sábado

    Tiempo Temperatura Precipitaciones Viento Presión Humedad
    00:00 +20°C° 0 mm 3 mps 760 mmHg 67%
    01:00 +19°C° 0 mm 3 mps 761 mmHg 69%
    02:00 +19°C° 0 mm 3 mps 761 mmHg 68%
    03:00 +19°C° 0 mm 3 mps 761 mmHg 66%
    04:00 +18°C° 0 mm 3 mps 762 mmHg 65%
    05:00 +18°C° 0 mm 3 mps 762 mmHg 64%
    06:00 +18°C° 0 mm 3 mps 763 mmHg 62%
    07:00 +18°C° 0 mm 3 mps 763 mmHg 61%
    08:00 +19°C° 0 mm 3 mps 763 mmHg 56%
    09:00 +21°C° 0 mm 3 mps 763 mmHg 52%
    10:00 +22°C° 0 mm 3 mps 764 mmHg 47%
    11:00 +24°C° 0 mm 3 mps 764 mmHg 43%
    12:00 +25°C° 0 mm 4 mps 764 mmHg 40%
    13:00 +26°C° 0 mm 4 mps 763 mmHg 36%
    14:00 +26°C° 0 mm 4 mps 763 mmHg 36%
    15:00 +26°C° 0 mm 4 mps 763 mmHg 35%
    16:00 +26°C° 0 mm 5 mps 763 mmHg 35%
    17:00 +25°C° 0 mm 5 mps 763 mmHg 41%
    18:00 +22°C° 0 mm 5 mps 763 mmHg 47%
    19:00 +21°C° 0 mm 5 mps 763 mmHg 53%
    20:00 +20°C° 0 mm 4 mps 764 mmHg 58%
    21:00 +19°C° 0 mm 4 mps 764 mmHg 63%
    22:00 +18°C° 0 mm 3 mps 764 mmHg 68%
    23:00 +18°C° 0 mm 3 mps 764 mmHg 71%

    Pasado mañana, 20 Enero, Domingo

    Tiempo Temperatura Precipitaciones Viento Presión Humedad
    00:00 +17°C° 0 mm 2 mps 764 mmHg 74%
    01:00 +17°C° 0 mm 2 mps 764 mmHg 77%
    02:00 +17°C° 0 mm 2 mps 764 mmHg 79%
    03:00 +17°C° 0 mm 2 mps 764 mmHg 80%
    04:00 +16°C° 0 mm 2 mps 764 mmHg 82%
    05:00 +17°C° 0 mm 2 mps 764 mmHg 80%
    06:00 +17°C° 0 mm 2 mps 764 mmHg 78%
    07:00 +18°C° 0 mm 2 mps 764 mmHg 76%
    08:00 +20°C° 0 mm 2 mps 764 mmHg 69%
    09:00 +23°C° 0 mm 2 mps 764 mmHg 62%
    10:00 +24°C° 0 mm 3 mps 764 mmHg 55%
    11:00 +26°C° 0 mm 3 mps 764 mmHg 52%
    12:00 +27°C° 0 mm 4 mps 763 mmHg 49%
    13:00 +28°C° 0 mm 4 mps 763 mmHg 46%
    14:00 +28°C° 0 mm 5 mps 762 mmHg 47%
    15:00 +28°C° 0 mm 5 mps 762 mmHg 48%
    16:00 +28°C° 0 mm 5 mps 762 mmHg 49%
    17:00 +27°C° 0 mm 5 mps 762 mmHg 54%
    18:00 +25°C° 0 mm 4 mps 762 mmHg 59%
    19:00 +23°C° 0 mm 4 mps 762 mmHg 64%
    20:00 +22°C° 0 mm 4 mps 763 mmHg 70%
    21:00 +21°C° 0 mm 3 mps 763 mmHg 76%
    22:00 +19°C° 0 mm 2 mps 763 mmHg 82%
    23:00 +19°C° 0 mm 2 mps 763 mmHg 84%

    21 Enero, Lunes

    Tiempo Temperatura Precipitaciones Viento Presión Humedad
    00:00 +19°C° 0 mm 2 mps 763 mmHg 86%
    01:00 +18°C° 0 mm 2 mps 762 mmHg 88%
    02:00 +18°C° 0 mm 2 mps 762 mmHg 88%
    03:00 +18°C° 0 mm 2 mps 762 mmHg 89%
    04:00 +17°C° 0 mm 2 mps 762 mmHg 90%
    05:00 +18°C° 0 mm 2 mps 762 mmHg 88%
    06:00 +19°C° 0 mm 1 mps 762 mmHg 86%
    07:00 +20°C° 0 mm 1 mps 762 mmHg 84%
    08:00 +22°C° 0 mm 1 mps 762 mmHg 74%
    09:00 +24°C° 0 mm 2 mps 762 mmHg 63%
    10:00 +26°C° 0 mm 2 mps 761 mmHg 53%
    11:00 +28°C° 0 mm 2 mps 761 mmHg 48%
    12:00 +30°C° 0 mm 2 mps 760 mmHg 43%
    13:00 +32°C° 0 mm 2 mps 759 mmHg 38%
    14:00 +33°C° 0 mm 3 mps 759 mmHg 39%
    15:00 +33°C° 0 mm 4 mps 759 mmHg 40%
    16:00 +33°C° 0 mm 5 mps 758 mmHg 42%
    17:00 +30°C° 0 mm 4 mps 758 mmHg 46%
    18:00 +29°C° 0 mm 4 mps 759 mmHg 50%
    19:00 +27°C° 0 mm 3 mps 759 mmHg 55%
    20:00 +26°C° 0 mm 3 mps 759 mmHg 60%
    21:00 +24°C° 0 mm 3 mps 759 mmHg 65%
    22:00 +22°C° 0 mm 3 mps 760 mmHg 70%
    23:00 +21°C° 0 mm 2 mps 759 mmHg 72%

    22 Enero, Martes

    Tiempo Temperatura Precipitaciones Viento Presión Humedad
    00:00 +21°C° 0 mm 2 mps 759 mmHg 75%
    01:00 +21°C° 0 mm 1 mps 759 mmHg 77%
    02:00 +21°C° 0 mm 1 mps 758 mmHg 77%
    03:00 +21°C° 0 mm 1 mps 758 mmHg 78%
    04:00 +21°C° 0 mm 1 mps 758 mmHg 79%
    05:00 +21°C° 0 mm 1 mps 758 mmHg 76%
    06:00 +20°C° 0 mm 0 mps 758 mmHg 73%
    07:00 +21°C° 0 mm 0 mps 758 mmHg 70%
    08:00 +23°C° 0 mm 0 mps 758 mmHg 61%
    09:00 +28°C° 0 mm 1 mps 758 mmHg 51%
    10:00 +31°C° 0 mm 1 mps 758 mmHg 42%
    11:00 +32°C° 0 mm 2 mps 758 mmHg 38%
    12:00 +35°C° 0 mm 3 mps 757 mmHg 34%
    13:00 +36°C° 0 mm 3 mps 757 mmHg 30%
    14:00 +36°C° 0 mm 3 mps 756 mmHg 30%
    15:00 +36°C° 0 mm 4 mps 756 mmHg 29%
    16:00 +36°C° 0 mm 4 mps 755 mmHg 29%
    17:00 +35°C° 0 mm 4 mps 755 mmHg 32%
    18:00 +33°C° 0 mm 5 mps 756 mmHg 35%
    19:00 +30°C° 0 mm 5 mps 756 mmHg 38%
    20:00 +28°C° 0 mm 4 mps 757 mmHg 44%
    21:00 +26°C° 0 mm 3 mps 757 mmHg 51%
    22:00 +24°C° 0 mm 1 mps 758 mmHg 57%
    23:00 +23°C° 0 mm 1 mps 758 mmHg 62%

    23 Enero, Miércoles

    Tiempo Temperatura Precipitaciones Viento Presión Humedad
    00:00 +23°C° 0 mm 1 mps 758 mmHg 66%
    01:00 +22°C° 0 mm 1 mps 758 mmHg 71%
    02:00 +20°C° 0 mm 2 mps 758 mmHg 73%
    03:00 +20°C° 0 mm 2 mps 758 mmHg 75%
    04:00 +20°C° 0 mm 3 mps 758 mmHg 76%
    05:00 +20°C° 0 mm 3 mps 758 mmHg 78%
    06:00 +20°C° 0 mm 3 mps 759 mmHg 79%
    07:00 +20°C° 0 mm 3 mps 759 mmHg 80%
    08:00 +20°C° 0 mm 4 mps 759 mmHg 78%
    09:00 +20°C° 0 mm 4 mps 760 mmHg 76%
    10:00 +20°C° 0 mm 5 mps 760 mmHg 74%
    11:00 +20°C° 0 mm 5 mps 760 mmHg 68%
    12:00 +21°C° 0 mm 5 mps 760 mmHg 61%
    13:00 +21°C° 0 mm 4 mps 760 mmHg 55%
    14:00 +22°C° 0 mm 5 mps 760 mmHg 50%
    15:00 +23°C° 0 mm 5 mps 759 mmHg 45%
    16:00 +23°C° 0 mm 6 mps 759 mmHg 40%
    17:00 +22°C° 0 mm 5 mps 760 mmHg 44%
    18:00 +21°C° 0 mm 5 mps 760 mmHg 47%
    19:00 +19°C° 0 mm 5 mps 760 mmHg 51%
    20:00 +19°C° 0 mm 4 mps 760 mmHg 54%
    21:00 +18°C° 0 mm 4 mps 761 mmHg 57%
    22:00 +17°C° 0 mm 3 mps 761 mmHg 60%
    23:00 +17°C° 0 mm 3 mps 761 mmHg 66%
    Mostrar más